Location: Utrecht
(52.0907°N, 5.1214°E)
Time: 08:08:57
(UTC+02:00)

DX 1 - Visible Passes

Search period start: 28 June 2022 00:00
Search period end: 08 July 2022 00:00
Orbit: 618 x 628 km, 98.4° (Epoch: 27 June)

Date Brightness Start Highest point End Pass type
(mag) Time Alt. Az. Time Alt. Az. Time Alt. Az.
28 Jun ? 01:01:03 10° NNW 01:02:38 12° NW 01:04:12 10° WNW visible
28 Jun ? 23:41:19 10° N 23:45:32 45° WNW 23:49:42 10° SW visible
29 Jun ? 23:59:47 10° N 00:03:42 32° WNW 00:07:36 10° SW visible
01 Jul ? 00:18:20 10° N 00:21:50 24° WNW 00:25:18 10° WSW visible
01 Jul ? 22:59:53 10° NNE 23:04:17 76° ESE 23:08:39 10° S visible
02 Jul ? 00:37:00 10° NNW 00:39:54 18° NW 00:42:48 10° W visible
02 Jul ? 23:18:10 10° NNE 23:22:33 75° WNW 23:26:55 10° SSW visible
03 Jul ? 00:55:56 10° NNW 00:57:57 13° NW 00:59:57 10° W visible
03 Jul ? 23:36:31 10° N 23:40:47 51° WNW 23:45:01 10° SW visible
04 Jul ? 23:54:57 10° N 23:58:58 36° WNW 00:02:57 10° SW visible
06 Jul ? 00:13:27 10° N 00:17:06 26° WNW 00:20:43 10° WSW visible
06 Jul ? 22:55:06 10° NNE 22:59:29 67° ESE 23:03:50 10° S visible
07 Jul ? 00:32:04 10° NNW 00:35:11 19° WNW 00:38:18 10° WSW visible
07 Jul ? 23:13:21 10° NNE 23:17:46 84° WNW 23:22:08 10° SSW visible
